www.pogodaiklimat.ru

Погода и климат >> Архив погоды >> Россия >> Магаданская область >> Остров Спафарьева


ПОГОДА на Остров Спафарьева

  • Прогноз погоды на Остров Спафарьева
  • Монитор погоды на Остров Спафарьева
  • Климат города

АРХИВ ПОГОДЫ на Остров Спафарьева

Время (UTC), дата Ветер
(напр.,м/с)
 
Видим.   Явления Облачность Т
(С)
Тd
(С)
f
(%)
Тe
(С)
Тes
(С)
Комфортность P
(гПа)
Po
(гПа)
Тmin
(С)
Tmax
(С)
R
(мм)
R24
(мм)
S
(см)
09 13.01 СЗ 9-11
{12}
50 км позёмок {метель} 8/3 600 м
[Sc Ac trans]
-17.4 -20.3 78 -30 -30 1009.0 1002.0 -14.0 0.2
12 13.01 З 8-10
{11}
50 км позёмок {метель} 8/3 600 м
[Sc Ac trans]
-18.7 -21.9 76 -31 -31 опасность
обморожения
1009.7 1002.6
15 13.01 З 6
{11}
50 км позёмок {метель} 8/3 600 м
[Sc Ac trans]
-19.3 -23.4 70 -30 -30 1009.8 1002.7
18 13.01 З 7
{11}
50 км позёмок {метель} 8/3 600 м
[Sc Ac trans]
-19.9 -23.3 74 -32 -32 опасность
обморожения
1010.3 1003.2
21 13.01 З 5
{10}
50 км позёмок {метель} 8/3 600 м
[Sc Ac trans]
-20.3 -23.3 77 -30 -30 1010.6 1003.5 -20.7 16
00 14.01 СЗ 6 50 км позёмок {метель} 6/6 600 м
[Cb cap]
-20.6 -24.3 72 -32 -32 опасность
обморожения
1010.7 1003.6 -21.0
03 14.01 СЗ 5 50 км {метель} 9/9 600 м
[Cb cap]
-20.5 -24.7 69 -31 -31 опасность
обморожения
1010.0 1002.9
06 14.01 С 3 50 км {метель} 3/3 600 м
[Cb cap]
-22.0 -25.8 71 -30 -30 1009.9 1002.7
09 14.01 С 3 50 км ясно -22.1 -26.4 68 -30 -30 1009.5 1002.3 -20.3
12 14.01 С 5 50 км ясно -20.5 -24.9 68 -31 -31 опасность
обморожения
1008.5 1001.5
15 14.01 С 2 50 км ясно -20.4 -26.5 58 -26 -26 1007.5 1000.4
18 14.01 ЮЗ 1 50 км ясно -19.2 -24.8 61 -22 -22 1006.3 999.3
21 14.01 С 1 50 км ясно -19.8 -23.4 73 -23 -23 1005.5 998.5 -22.1 16
00 15.01 С 1 50 км 9/0
[Ci fib]
-19.6 -24.5 65 -23 -22 1005.0 998.0
03 15.01 С 2 50 км 9/0
[Cs]
-18.9 -24.9 59 -25 -24 1003.9 996.9
06 15.01 С 3 50 км 9/0
[Ac lent Cs]
-19.2 -25.6 57 -27 -27 1003.3 996.3
09 15.01 С 4 50 км 9/0
[Ac lent Cs]
-19.4 -26.0 56 -28 -28 1003.5 996.5 -18.5
12 15.01 С 3 50 км 9/0
[Ac lent Cs]
-18.9 -24.9 59 -26 -26 1003.5 996.5
15 15.01 СВ 3 50 км 9/0
[Ac lent Cs]
-19.4 -25.2 60 -27 -27 1003.5 996.5
18 15.01 С 3 50 км ясно -20.0 -26.3 57 -28 -28 1003.8 996.8
21 15.01 СВ 4 50 км ясно -20.1 -27.0 54 -29 -29 1004.4 997.3 -20.4 16
00 16.01 СВ 3
{10}
50 км позёмок {метель} 4/0
[Ci fib]
-20.0 -26.4 57 -28 -27 1005.0 998.0 -20.8
03 16.01 С 3 50 км {метель} 9/3 600 м
[Sc Ci fib]
-19.9 -26.8 54 -27 -27 1005.3 998.3
06 16.01 С 4 50 км {метель} 1/0
[Ac trans]
-21.0 -27.4 56 1006.1 1006.0
09 16.01 СВ 9-12
{12}
50 км сильный позёмок {метель} ясно -22.0 -28.4 56 -36 -36 опасность
обморожения
1007.0 999.9 -19.6
12 16.01 С 5
{12}
50 км позёмок {метель} ясно -22.3 -29.7 51 -33 -33 опасность
обморожения
1007.8 1000.7
15 16.01 СВ 9-11
{11}
50 км позёмок {метель} ясно -22.7 -29.7 53 -37 -37 опасность
обморожения
1008.7 1001.5
18 16.01 С 4
{12}
50 км {метель} ясно -22.9 -30.1 52 -32 -32 опасность
обморожения
1010.0 1002.8
21 16.01 С 5
{10}
50 км ясно -22.8 -31.0 47 -34 -34 опасность
обморожения
1011.4 1004.3 -23.5 16
00 17.01 С 8-10
{12}
50 км позёмок {метель} ясно -22.9 -31.8 44 -36 -36 опасность
обморожения
1013.0 1005.8
03 17.01 С 6
{10}
50 км {метель} ясно -22.1 -30.6 46 -34 -33 опасность
обморожения
1013.5 1006.3
06 17.01 С 6 50 км {метель} ясно -22.2 -30.5 47 -34 -34 опасность
обморожения
1014.4 1007.2
09 17.01 СВ 4 50 км ясно -21.7 -31.7 40 -31 -31 опасность
обморожения
1015.4 1008.2 -21.5
12 17.01 СВ 4 50 км ясно -21.9 -30.9 44 -31 -31 опасность
обморожения
1016.1 1009.0
15 17.01 С 2 50 км ясно -22.0 -30.8 45 -28 -28 1017.0 1009.8
18 17.01 С 3 50 км ясно -22.2 -29.2 53 -30 -30 1017.6 1010.4
21 17.01 СВ 2 50 км ясно -22.2 -23.2 92 -28 -28 1018.4 1011.2 -23.3 16
00 18.01 штиль 0 50 км ясно -21.7 -28.0 57 -22 -21 1019.1 1011.9
03 18.01 С 3 50 км 3/0
[Ci fib]
-21.4 -29.3 49 -29 -29 1019.5 1012.3
06 18.01 СВ 5 50 км 3/0
[Ci fib]
-22.2 -29.2 53 -33 -33 опасность
обморожения
1019.7 1012.5
09 18.01 СВ 8 50 км ясно -22.4 -29.4 53 -36 -36 опасность
обморожения
1020.1 1012.9 -20.8
12 18.01 СВ 3
{11}
50 км ясно -21.4 -30.0 46 -29 -29 1021.2 1014.0
15 18.01 СВ 4 50 км ясно -21.1 -30.9 41 -30 -30 1021.0 1013.8
18 18.01 штиль 0 50 км ясно -19.9 -25.7 60 -20 -20 1021.2 1014.0
21 18.01 В 3 50 км 4/4 600 м
[Sc]
-18.1 -21.8 73 -25 -25 1021.3 1014.2 -22.6 16
00 19.01 СВ 6-10
{10}
50 км 9/1 600 м
[Sc Ci fib]
-17.7 -21.2 74 -28 -28 1021.9 1014.8
03 19.01 СВ 6-10
{10}
50 км 9/1 600 м
[Sc Ci fib]
-17.7 -21.1 75 -28 -28 1022.0 1014.8
06 19.01 В 7-12
{13}
50 км позёмок {метель} 9/0
[Ac lent Cs]
-16.1 -21.7 62 -27 -27 1020.9 1013.9
09 19.01 СВ 12-15
{19}
50 км метель 9/0
[Ac lent Cs]
-16.7 -21.6 66 -30 -30 1020.7 1013.6 -15.7
12 19.01 СВ 12-15
{18}
50 км позёмок {метель} 9/0
[Ac lent Cs]
-15.9 -21.0 65 -29 -29 1020.5 1013.4
15 19.01 СВ 12-15
{16}
50 км позёмок {метель} 9/0
[Ac lent Cs]
-15.4 -20.3 66 -28 -28 1019.7 1012.7
18 19.01 СВ 12-16
{16}
50 км позёмок {метель} 9/0
[Ac lent Cs]
-15.1 -19.6 68 -28 -28 1019.4 1012.4
21 19.01 В 10-15
{16}
50 км позёмок {метель} 9/0
[Ac lent Cs]
-11.9 -14.7 80 -23 -23 1019.0 1012.1 -16.9 16
00 20.01 СВ 9-10
{15}
50 км {метель} 3/0
[Ac trans]
-13.3 -18.5 65 -24 -24 1019.4 1012.5
03 20.01 СВ 13-15
{15}
50 км позёмок {метель} 3/0
[Ci fib]
-13.6 -20.7 55 -26 -26 1017.3 1010.3
06 20.01 СВ 11-12
{15}
50 км позёмок {метель} 6/0
[Ci fib]
-14.3 -22.0 52 -27 -27 1016.5 1009.5

 

Местоположение метеостанции Остров Спафарьева (Магаданская область, Россия): широта 59.15 долгота 149.00 высота над уровнем моря 52 м.

В архиве по умолчанию представлена погода на Остров Спафарьева за последнюю неделю. Архивные данные за месяц целиком и за предыдущие месяцы, начиная с января 2011 года, Вы можете получить, выбрав интересующий диапазон дат из раскрывающегося списка и нажав кнопку "Ввод!".

Внимание! Время в таблицах - всемирное. Для получения местного времени необходимо прибавить поправку, которая на Остров Спафарьева равна 11 ч.

Смотрите также архив погоды в соседних городах и на ближайших метеорологических станциях:

Погода в Талоне (Магаданская область, Россия) (72 км)
Погода в Армани (Магаданская область, Россия) (84 км)
Погода в Нагаева (Магаданская область, Россия) (106 км)
Погода в Магадане (Магаданская область, Россия) (106 км)
Погода в Оле (Магаданская область, Россия) (133 км)
Погода на Мысе Алевина (Магаданская область, Россия) (137 км)
Погода в Палатке (Магаданская область, Россия) (150 км)
Погода в Мадауне (Магаданская область, Россия) (187 км)
Погода в Усть-Омчуге (Магаданская область, Россия) (222 км)
Погода на Мысе Братьев (Магаданская область, Россия) (245 км)

Пояснения к столбцам:

Ветер - указаны скорость ветра в м/с - средняя за 10 мин, порывы в срок и между сроками (в фигурных скобках) и направление, откуда дует ветер: С - северный, СВ - северо-восточный, В - восточный, ЮВ - юго-восточный, Ю - южный, ЮЗ - юго-западный, З - западный, СЗ - северо-западный.
Видимость - горизонтальная дальность видимости в метрах или километрах. При видимости от 1 до 10 км при отсутствии осадков обычно наблюдается дымка, при ухудшении видимости до 1 км и менее - туман. В сухую погоду видимость может ухудшаться дымом, пылью или мглою.
Явления - указаны атмосферные явления, наблюдавшиеся в срок или в последний час перед сроком; фигурными скобками обозначены явления, наблюдавшиеся между сроками (за 1-3 часа до срока); квадратными скобками обозначены град или гололедные отложения с указанием их диаметра в мм.
Облачность - указаны через наклонную черту общая и нижняя облачность в баллах и высота нижней границы облаков в метрах; квадратными скобками обозначены формы облаков: Ci - перистые, Cs - перисто-слоистые, Cc - перисто-кучевые, Ac - высококучевые, As - высокослоистые, Sc - слоисто-кучевые, Ns - слоисто-дождевые, Cu - кучевые, Cb - кучево-дождевые. Подробнее классификацию облаков см. в Атласе облаков (PDF).
T - Температура воздуха - температура, измеренная на высоте 2 м над землей.
Td - Температура точки росы - температура, при понижении до которой содержащийся в воздухе водяной пар достигнет насыщения.
f - Относительная влажность воздуха - влажноcть воздуха, измеренная на высоте 2 м над землей.
Te - Эффективная температура - температура, которую ощущает одетый по сезону человек в тени. Характеристика душности погоды. При расчете учитывается влияние влажности воздуха и скорости ветра на теплоощущения человека.
Tes - Эффективная температура на солнце - температура, которую ощущает человек, с поправкой на солнечный нагрев. Характеристика знойности погоды. Зависит от высоты солнца над горизонтом, облачности и скорости ветра. Ночью, в пасмурную погоду, а также при ветре 12 м/с и более поправка равна нулю.
P - Атмосферное давление - приведенное к уровню моря атмосферное давление.
Po - Атмосферное давление - измеренное на уровне метеостанции атмосферное давление.
Tmin - Минимальная температура - минимум температуры воздуха на высоте 2 м над землей.
Tmax - Максимальная температура - максимум температуры воздуха на высоте 2 м над землей.
R - Количество осадков - Количество выпавших осадков за период времени, мм. При наведении курсора мыши на число - период времени, за который выпало указанное количество осадков.
R24 - Количество осадков - Количество выпавших осадков за 24 часа, мм.
S - Снежный покров - Высота снежного покрова, см. При наведении курсора мыши на число - состояние снежного покрова и степень покрытия местности в баллах.